map of KHH home
KHH - Airport
Location
City:  Kaohsiung, Taiwan
Name:Kaohsiung International Airport
ICAO:RCKH
IATA:KHH

Details
Type:Airport (Aerodrome, Airfield)
Use:Public/Civil, International (customs port of entry)
Latitude:2234'38"N (22.577094)
Longitude:12021'00"E (120.350006)
Datum:WGS 1984
Elevation:31 ft (9 m)
Variation:3.88W (WMM2015v2 magnetic declination)
-0.08 annual change
Runways:1
Longest:10335 × 197 ft (3150 × 60 m), paved

Time
Time Zone:UTC+8
Local Time:

Weather
METAR:RCKH 041400Z 32005KT 3200 -DZ SCT007 SCT016 BKN030 22/21 Q1017 NOSIG RMK A3005 RA AMT 0.2MM
TAF:RCKH 041100Z 0412/0518 35005KT 5000 BR FEW016 BKN032
TEMPO 0412/0418 3200 RA FEW006 BKN015
TEMPO 0420/0502 05005KT 2500 BR FEW010 BKN020
BECMG 0503/0505 25007KT 6000 NSW
TEMPO 0508/0513 31005KT

Related Locations
Nearby:
Farthest:FLM: 12422 mi / 19991 km
Filadelfia, 19, PY

Find:

   beyond  
but within

Other Information
Maps:
NOTAMs:
Links:
Sources:

  
  • flag of Taiwan
  

Sectional Chart

Flight Planning
at skyvector.com

Satellite Image

Google Maps Satellite view

 

Copyright © 2004-2019 Karl L. Swartz. All rights reserved.
The Great Circle Mapper name and logo are trademarks of the Great Circle Mapper.
All other trademarks mentioned herein belong to their respective owners.
Please see credits for attibutions and further copyright information.

  Follow gcmap on Facebook Follow gcmap on Twitter GCmap on LinkedIn

hCard Microformat

Geo Microformat